GW2722 Weather Reports


time (UTC)temp
C
wind
direction
speed
KPH
gust
KPH
rain 1hr
cm
rain 24hr
cm
rain mn
cm
humidity
%
barometer
mb
20260905234604 28 0 0.0 0.0 0.00 0.00 0.00 82 1012.3
20260905233104 28 0 0.0 0.0 0.00 0.00 0.00 81 1012.2
20260905231618 29 0 0.0 0.0 0.00 0.00 0.00 77 1012.4
20260905230108 30 0 0.0 0.0 0.00 0.00 0.00 76 1012.6
20260905224600 30 0 0.0 1.6 0.00 0.00 0.00 75 1012.3
20260905223105 31 0 0.0 1.6 0.00 0.00 0.00 70 1012.0
20260905221619 32 0 0.0 1.6 0.00 0.00 0.00 63 1012.2
20260905220104 33 0 0.0 3.2 0.00 0.00 0.00 58 1012.2
20260905214609 34 0 0.0 1.6 0.00 0.00 0.00 57 1012.1
20260905213105 33 0 0.0 4.8 0.00 0.00 0.00 57 1012.1
20260905211605 33 0 0.0 11.3 0.00 0.00 0.00 55 1012.2
20260905210111 33 311 0.0 4.8 0.00 0.00 0.00 57 1012.5
20260905204601 33 0 0.0 3.2 0.00 0.00 0.00 56 1012.7
20260905203102 32 0 0.0 8.0 0.00 0.00 0.00 59 1012.8
20260905201605 31 355 3.2 8.0 0.00 0.00 0.00 61 1012.8
20260905200129 31 339 4.8 12.9 0.00 0.00 0.00 58 1013.0
20260905194603 31 10 3.2 8.0 0.00 0.00 0.00 57 1013.2
20260905193105 31 0 3.2 14.5 0.00 0.00 0.00 62 1013.4
20260905191612 31 360 4.8 11.3 0.00 0.00 0.00 57 1013.5
20260905190105 31 329 4.8 14.5 0.00 0.00 0.00 59 1013.8
20260905184613 31 27 1.6 16.1 0.00 0.00 0.00 64 1013.9
20260905183114 30 334 6.4 17.7 0.00 0.00 0.00 60 1014.1
20260905181620 30 328 3.2 16.1 0.00 0.00 0.00 62 1014.1
20260905180116 29 348 4.8 14.5 0.00 0.00 0.00 61 1014.1
20260905174605 28 322 4.8 12.9 0.00 0.00 0.00 63 1014.4
20260905173132 28 360 6.4 12.9 0.00 0.00 0.00 62 1014.6
20260905171606 28 345 4.8 14.5 0.00 0.00 0.00 65 1015.1
20260905170105 28 26 4.8 12.9 0.00 0.00 0.00 63 1015.1
20260905164614 28 355 1.6 16.1 0.00 0.00 0.00 65 1015.2
20260905163109 27 5 3.2 11.3 0.00 0.00 0.00 65 1015.4
20260905161605 27 0 1.6 14.5 0.00 0.00 0.00 64 1015.6
20260905160107 26 198 6.4 12.9 0.00 0.00 0.00 67 1015.5
20260905154606 26 246 8.0 14.5 0.00 0.00 0.00 64 1015.4
20260905153104 26 305 8.0 19.3 0.00 0.00 0.00 67 1015.4
20260905151606 26 322 6.4 14.5 0.00 0.00 0.00 68 1015.2
20260905150108 26 351 8.0 14.5 0.00 0.00 0.00 70 1015.2
20260905144609 26 262 8.0 14.5 0.00 0.00 0.00 66 1015.2
20260905143104 26 288 6.4 12.9 0.00 0.00 0.00 66 1015.5
20260905141605 25 266 8.0 19.3 0.00 0.00 0.00 70 1015.6
20260905140113 25 227 4.8 12.9 0.00 0.00 0.00 71 1016.0
20260905134606 23 242 6.4 14.5 0.00 0.00 0.00 74 1016.1
20260905133109 23 231 6.4 17.7 0.00 0.00 0.00 74 1016.5
20260905131608 23 229 3.2 17.7 0.00 0.00 0.00 77 1016.5
20260905124600 22 213 4.8 12.9 0.00 0.00 0.00 80 1016.7
20260905123106 21 235 4.8 12.9 0.00 0.00 0.00 81 1016.8
20260905121605 22 254 3.2 14.5 0.00 0.00 0.00 81 1017.1
20260905120112 22 270 1.6 11.3 0.00 0.00 0.00 80 1016.8
20260905114611 22 0 6.4 16.1 0.00 0.00 0.00 80 1016.7
20260905113102 22 201 8.0 25.7 0.00 0.00 0.00 80 1016.8
20260905111653 22 221 9.7 33.8 0.00 0.00 0.00 84 1016.5
20260905104603 21 0 0.0 1.6 0.00 0.00 0.00 93 1014.4
20260905103109 22 0 0.0 3.2 0.00 0.00 0.00 92 1013.7
20260905101602 22 0 0.0 4.8 0.00 0.00 0.00 90 1014.3
20260905094605 23 329 1.6 11.3 0.00 0.00 0.00 89 1014.8
20260905093122 23 0 0.0 8.0 0.00 0.00 0.00 92 1014.7
20260905091602 21 352 1.6 8.0 0.00 0.00 0.00 97 1014.5
20260905090104 21 0 0.0 1.6 0.00 0.00 0.00 97 1014.3
20260905084603 21 0 0.0 1.6 0.00 0.00 0.00 97 1014.2
20260905083102 21 0 0.0 0.0 0.00 0.00 0.00 96 1014.2
20260905081603 21 0 0.0 0.0 0.00 0.00 0.00 96 1014.0
20260905080106 21 0 0.0 0.0 0.00 0.00 0.00 96 1013.8
20260905074611 21 0 0.0 0.0 0.00 0.00 0.00 96 1013.6
20260905073104 21 0 0.0 0.0 0.00 0.00 0.00 96 1013.6
20260905071558 21 0 0.0 0.0 0.00 0.00 0.00 96 1013.7
20260905070106 21 0 0.0 0.0 0.00 0.00 0.00 96 1013.9
20260905064631 21 0 0.0 0.0 0.00 0.00 0.00 96 1014.2
20260905063103 21 0 0.0 0.0 0.00 0.00 0.00 95 1014.3
20260905061604 21 0 0.0 0.0 0.00 0.00 0.00 95 1014.6
20260905060108 22 0 0.0 0.0 0.00 0.00 0.00 95 1014.7
20260905054607 22 0 0.0 0.0 0.00 0.00 0.00 95 1014.8
20260905053111 22 0 0.0 0.0 0.00 0.00 0.00 95 1015.1
20260905051601 22 0 0.0 0.0 0.00 0.00 0.00 95 1015.1
20260905050108 22 0 0.0 0.0 0.00 0.00 0.00 94 1015.2
20260905044611 22 0 0.0 0.0 0.00 0.00 0.00 94 1015.3
20260905043108 22 0 0.0 1.6 0.00 0.00 0.00 94 1015.3
20260905041603 22 0 0.0 0.0 0.00 0.00 0.00 94 1015.3
20260905040105 22 0 0.0 0.0 0.00 0.00 0.00 93 1015.3
20260905034609 22 0 0.0 0.0 0.00 0.00 0.00 93 1015.4
20260905033101 23 0 0.0 1.6 0.00 0.00 0.00 92 1015.4
20260905031605 23 0 0.0 0.0 0.00 0.00 0.00 93 1015.4
20260905030119 23 0 0.0 0.0 0.00 0.00 0.00 92 1015.2
20260905024605 23 0 0.0 0.0 0.00 0.00 0.00 91 1015.2
20260905023101 23 0 0.0 0.0 0.00 0.00 0.00 91 1015.2
20260905021611 24 0 0.0 1.6 0.00 0.00 0.00 89 1015.3
20260905020108 24 0 0.0 0.0 0.00 0.00 0.00 88 1015.2
20260905014603 25 0 0.0 1.6 0.00 0.00 0.00 88 1015.1
20260905013105 25 0 0.0 1.6 0.00 0.00 0.00 87 1015.2
20260905011608 25 187 0.0 3.2 0.00 0.00 0.00 85 1015.0
20260905010103 25 0 0.0 1.6 0.00 0.00 0.00 85 1014.9
20260905004608 26 178 0.0 4.8 0.00 0.00 0.00 84 1014.7
20260905003108 26 0 0.0 0.0 0.00 0.00 0.00 81 1014.5
20260905001612 27 0 0.0 1.6 0.00 0.00 0.00 78 1014.5
20260905000107 28 0 0.0 1.6 0.00 0.00 0.00 75 1014.3